This is the latest recevied weather packets stored in our database for station/object N9XRG. If no packets are shown the sender has not sent any weather packets the latest 10 day(s).
| Time | Temp. | Humidity | Pressure | Rain* | Wind** | Luminosity | Snow |
|---|---|---|---|---|---|---|---|
| 1777649765 | 8.89° C | 73% | 1014.5 hPa | 0 mm | - | 373 W/m² | - |
| 1777649462 | 8.89° C | 74% | 1014.5 hPa | 0 mm | - | 1002 W/m² | - |
| 1777649158 | 8.33° C | 78% | 1014.5 hPa | 0 mm | - | 590 W/m² | - |
| 1777648856 | 7.78° C | 78% | 1014.6 hPa | 0 mm | - | 689 W/m² | - |
| 1777648553 | 7.78° C | 81% | 1014.7 hPa | 0 mm | - | 1017 W/m² | - |
| 1777648250 | 6.67° C | 81% | 1014.8 hPa | 0 mm | - | 573 W/m² | - |
| 1777647950 | 6.67° C | 83% | 1014.5 hPa | 0 mm | - | 231 W/m² | - |
| 1777647647 | 7.22° C | 80% | 1014.5 hPa | 0 mm | - | 256 W/m² | - |
| 1777647343 | 7.78° C | 85% | 1014.4 hPa | 0 mm | - | 453 W/m² | - |
| 1777647042 | 6.11° C | 86% | 1014.4 hPa | 0 mm | - | 784 W/m² | - |
| 1777646737 | 6.11° C | 87% | 1014.3 hPa | 0 mm | - | 336 W/m² | - |
| 1777646432 | 5.56° C | 90% | 1014.2 hPa | 0 mm | - | 281 W/m² | - |
| 1777646129 | 5.56° C | 91% | 1014.6 hPa | 0 mm | - | 255 W/m² | - |
| 1777645827 | 5° C | 92% | 1014.4 hPa | 0 mm | - | 247 W/m² | - |
| 1777645524 | 4.44° C | 92% | 1014.3 hPa | 0 mm | - | 176 W/m² | - |
| 1777645219 | 4.44° C | 92% | 1014.1 hPa | 0 mm | - | 131 W/m² | - |
| 1777644915 | 4.44° C | 91% | 1014.3 hPa | 0 mm | - | 62 W/m² | - |
| 1777644614 | 4.44° C | 92% | 1014.3 hPa | 0 mm | - | 86 W/m² | - |
| 1777644309 | 4.44° C | 91% | 1014.1 hPa | 0 mm | - | 108 W/m² | - |
| 1777644005 | 4.44° C | 92% | 1014.2 hPa | 0 mm | - | 78 W/m² | - |
| 1777643702 | 4.44° C | 91% | 1013.9 hPa | 0 mm | - | 94 W/m² | - |
| 1777643400 | 4.44° C | 91% | 1014.2 hPa | 0 mm | - | 157 W/m² | - |
| 1777643096 | 4.44° C | 92% | 1013.8 hPa | 0 mm | - | 172 W/m² | - |
| 1777642793 | 3.89° C | 91% | 1013.9 hPa | 0 mm | - | 122 W/m² | - |
| 1777642490 | 3.89° C | 92% | 1013.8 hPa | 0 mm | - | 111 W/m² | - |
* Rain latest hour (hover to see other rain measurements)
** Current wind speed in m/s (hover to see current wind gust speed)